Location: Chuathbaluk
(61.5726°N, 159.2454°W)
Time: 14:43:27
(UTC+00:00)

N. Korean satellite - Pass Details

Date: 31 October 2020
Orbit: 453 x 503 km, 97.2° (Epoch: 03 December)

Event Time Altitude Azimuth Distance (km) Brightness Sun altitude
Rises 03:19:01 0° 177° (S) 2,526 10.4 -5.4°
Reaches altitude 10° 03:21:08 10° 183° (S) 1,643 9.6 -5.6°
Maximum altitude 03:24:34 49° 259° (W) 617 7.7 -6.0°
Drops below altitude 10° 03:27:58 10° 336° (NNW) 1,630 9.3 -6.4°
Sets 03:30:04 0° 342° (NNW) 2,503 10.2 -6.6°
